Volver al catálogo

STARLINK-36910

ActivoComunicacionesVLEO
NORAD 68005·PAYLOAD·🇺🇸 United States

Lanzado Feb 27, 2026 desde Vandenberg Space Force Base

Loading…

Próximos Pases (próximas 24 horas)

TLE

ActualizadoSource: CelesTrak SupGP

Época: Sep 14, 2026, 22:51 UTC

1 68005C 26039V   26257.95256944  .00059040  00000+0  21380-2 0  2575
2 68005  43.0000  60.3206 0001542 273.0659 165.4541 15.27555137    17

Sigue STARLINK-36910 en tiempo real con AllMySat

Download on the App Store